Disclaimer

Please do not use the information listed here in-flight or in-navigation, as they are not provided to us by the airports but are provided by volunteers, so they might be outdated.

Search


Regions


Airport information page

Radio informations:
Tower (TWR) - 118.7 MHz

Airport informations:
Latitude: 42° 21' 51.00" N
Longitude: 069° 28' 44.00" E
Elevation: 1385 feet - 422 meters
Operating hours: 24 hour operations
Operating agency: Civil government, landing fees and diplomatic clearance may be required
Timezone: UTC+6
Fuel: Jet A1, without icing nhibitor.

Unknown fuel type or whether there is any fuel.

Runway information:
10/28 - 9186 x 144 feet< - >2800 x 44 meters

Recent METARs:
UAII 170930Z 07004MPS 030V100 CAVOK 15/M03 Q1016 R10/0///70 NOSIG RMK QFE727/0969
UAII 170930Z 07004MPS 030V100 CAVOK 15/M03 Q1016 R10/0///70 NOSIG RMK QFE727/0969
UAII 171030Z 08005MPS 050V110 CAVOK 15/M02 Q1015 R28/0///70 NOSIG RMK QFE724/0966

Airport on the map: